Terminal Aerodrome Forecast
Issued by NWS

Home | Current Version | Previous Version | Graphics & Text | Print | Product List | Glossary On
Versions: 1 2 3 4 5 6 7 8 9 10 11 12 13 14 15 16 17 18 19
000
FTUS43 KLSX 292037 AAA
TAFSUS
TAF AMD
KSUS 292037Z 2921/3018 31004KT P6SM FEW040 SCT250
      TEMPO 3008/3012 5SM BR=

USA.gov is the U.S. government's official web portal to all federal, state and local government web resources and services.